VTK501 UNNT-USSS

Flight info

Callsign VTK501
Flight time 1h 56m
Altitude 40000
Route OGAMA1L OGAMA A308 ML A300 RUBOR T448 SOPUS P135 BEGMA BEGMA6N
Aircraft A388/J-SADE2E3FGHIJ3J4J5M1RWXY/LB1D1

Departure

Time 2026-05-07 09:40
Airport Novosibirsk Tolmachevo Airport (UNNT)

Arrival

Time 2026-05-07 11:36
Airport Koltsovo Airport (USSS)
Time Latitude Longitude Altitude Speed Heading
2026-05-07 09:24 55.00679 82.63578 378 ft 0 kts 171°
2026-05-07 09:34 55.00695 82.63574 378 ft 3 kts 171°
2026-05-07 09:34 55.00713 82.63576 378 ft 3 kts 193°
2026-05-07 09:34 55.00729 82.63592 378 ft 2 kts 220°
2026-05-07 09:35 55.00738 82.63615 378 ft 5 kts 243°
2026-05-07 09:35 55.00740 82.63659 378 ft 0 kts 275°
2026-05-07 09:37 55.00743 82.63635 378 ft 3 kts 303°
2026-05-07 09:37 55.00755 82.63623 378 ft 2 kts
2026-05-07 09:38 55.00795 82.63656 378 ft 11 kts 29°
2026-05-07 09:38 55.00867 82.63741 378 ft 11 kts 71°
2026-05-07 09:38 55.00892 82.63896 378 ft 14 kts 69°
2026-05-07 09:38 55.00968 82.63995 378 ft 15 kts 10°
2026-05-07 09:39 55.01079 82.63986 380 ft 17 kts
2026-05-07 09:39 55.01151 82.64117 380 ft 17 kts 73°
2026-05-07 09:39 55.01204 82.64586 378 ft 80 kts 81°
2026-05-07 09:39 55.01330 82.65961 378 ft 146 kts 81°
2026-05-07 09:40 55.01456 82.67905 588 ft 168 kts 86°
2026-05-07 09:40 55.01622 82.69949 1085 ft 174 kts 82°
2026-05-07 09:40 55.01833 82.72048 1591 ft 178 kts 81°
2026-05-07 09:40 55.02042 82.74172 2152 ft 182 kts 81°
2026-05-07 09:41 55.02360 82.76409 2378 ft 203 kts 66°
2026-05-07 09:41 55.03199 82.78572 2852 ft 227 kts 44°
2026-05-07 09:41 55.04591 82.80068 3406 ft 247 kts 15°
2026-05-07 09:41 55.06348 82.80238 4003 ft 263 kts 347°
2026-05-07 09:42 55.08161 82.79535 4822 ft 270 kts 345°
2026-05-07 09:42 55.09987 82.78802 5787 ft 271 kts 345°
2026-05-07 09:42 55.11832 82.78078 6601 ft 275 kts 346°
2026-05-07 09:42 55.13706 82.77366 6931 ft 277 kts 346°
2026-05-07 09:43 55.15587 82.76651 7067 ft 278 kts 346°
2026-05-07 09:43 55.17477 82.75930 7459 ft 280 kts 346°
2026-05-07 09:43 55.19374 82.75208 8408 ft 278 kts 346°
2026-05-07 09:43 55.21275 82.74483 9330 ft 282 kts 346°
2026-05-07 09:44 55.23191 82.73752 10193 ft 285 kts 346°
2026-05-07 09:44 55.25186 82.72987 10654 ft 304 kts 345°
2026-05-07 09:44 55.27288 82.72181 11226 ft 313 kts 345°
2026-05-07 09:44 55.29394 82.71268 11954 ft 314 kts 336°
2026-05-07 09:45 55.31218 82.69239 12745 ft 311 kts 313°
2026-05-07 09:45 55.32440 82.66133 13532 ft 311 kts 292°
2026-05-07 09:45 55.32957 82.62446 14213 ft 315 kts 279°
2026-05-07 09:45 55.33322 82.58544 14427 ft 335 kts 279°
2026-05-07 09:46 55.33725 82.54450 14877 ft 344 kts 279°
2026-05-07 09:46 55.34137 82.50310 15562 ft 346 kts 279°
2026-05-07 09:46 55.34553 82.46127 16211 ft 350 kts 279°
2026-05-07 09:46 55.34970 82.41914 16865 ft 353 kts 279°
2026-05-07 09:47 55.35389 82.37653 17498 ft 356 kts 279°
2026-05-07 09:47 55.35810 82.33353 18125 ft 359 kts 279°
2026-05-07 09:47 55.36232 82.29022 18685 ft 363 kts 279°
2026-05-07 09:47 55.36656 82.24648 19240 ft 365 kts 279°
2026-05-07 09:48 55.37083 82.20236 19728 ft 369 kts 279°
2026-05-07 09:48 55.37512 82.15777 20251 ft 372 kts 279°
2026-05-07 09:48 55.37943 82.11278 20779 ft 375 kts 279°
2026-05-07 09:48 55.38373 82.06767 21299 ft 378 kts 279°
2026-05-07 09:49 55.38808 82.02194 21824 ft 380 kts 279°
2026-05-07 09:49 55.39243 81.97607 22328 ft 383 kts 279°
2026-05-07 09:49 55.39679 81.92977 22839 ft 386 kts 279°
2026-05-07 09:49 55.40117 81.88317 23344 ft 389 kts 279°
2026-05-07 09:50 55.40557 81.83608 23807 ft 391 kts 279°
2026-05-07 09:50 55.40996 81.78890 24311 ft 391 kts 279°
2026-05-07 09:50 55.41434 81.74172 24819 ft 392 kts 279°
2026-05-07 09:50 55.41871 81.69437 25312 ft 393 kts 279°
2026-05-07 09:51 55.42306 81.64703 25862 ft 393 kts 279°
2026-05-07 09:51 55.42739 81.59965 26441 ft 393 kts 279°
2026-05-07 09:51 55.43171 81.55220 27026 ft 394 kts 279°
2026-05-07 09:51 55.43601 81.50473 27618 ft 395 kts 279°
2026-05-07 09:52 55.44032 81.45695 28218 ft 396 kts 279°
2026-05-07 09:52 55.44461 81.40916 28856 ft 396 kts 280°
2026-05-07 09:52 55.44890 81.36121 29446 ft 398 kts 280°
2026-05-07 09:52 55.45318 81.31309 30063 ft 399 kts 280°
2026-05-07 09:53 55.45747 81.26475 30571 ft 401 kts 280°
2026-05-07 09:53 55.46175 81.21619 31079 ft 403 kts 280°
2026-05-07 09:53 55.46604 81.16730 31575 ft 405 kts 280°
2026-05-07 09:53 55.47087 81.11851 32036 ft 407 kts 283°
2026-05-07 09:54 55.47766 81.07002 32519 ft 409 kts 283°
2026-05-07 09:54 55.48452 81.02133 32981 ft 411 kts 283°
2026-05-07 09:54 55.49135 80.97231 33448 ft 414 kts 283°
2026-05-07 09:54 55.49817 80.92301 33930 ft 416 kts 283°
2026-05-07 09:55 55.50501 80.87328 34297 ft 420 kts 283°
2026-05-07 09:55 55.51187 80.82311 34609 ft 424 kts 283°
2026-05-07 09:55 55.51879 80.77239 35009 ft 426 kts 283°
2026-05-07 09:55 55.52568 80.72165 35430 ft 428 kts 283°
2026-05-07 09:56 55.53259 80.67063 35858 ft 429 kts 283°
2026-05-07 09:56 55.53949 80.61947 36289 ft 431 kts 283°
2026-05-07 09:56 55.54642 80.56791 36716 ft 432 kts 283°
2026-05-07 09:56 55.55333 80.51639 37124 ft 433 kts 283°
2026-05-07 09:57 55.56025 80.46464 37536 ft 435 kts 282°
2026-05-07 09:57 55.56717 80.41258 37927 ft 436 kts 282°
2026-05-07 09:57 55.57409 80.36045 38353 ft 437 kts 282°
2026-05-07 09:57 55.58099 80.30821 38742 ft 438 kts 282°
2026-05-07 09:58 55.58788 80.25588 39080 ft 439 kts 282°
2026-05-07 09:58 55.59476 80.20341 39407 ft 439 kts 282°
2026-05-07 09:58 55.60162 80.15093 39712 ft 440 kts 282°
2026-05-07 09:58 55.60852 80.09802 39942 ft 443 kts 282°
2026-05-07 09:59 55.61545 80.04461 39988 ft 447 kts 282°
2026-05-07 09:59 55.62916 79.93834 39987 ft 444 kts 282°
2026-05-07 10:00 55.64288 79.83170 39989 ft 447 kts 282°
2026-05-07 10:00 55.65671 79.72464 39993 ft 446 kts 282°
2026-05-07 10:01 55.67043 79.61765 39986 ft 447 kts 282°
2026-05-07 10:01 55.68406 79.51043 39989 ft 447 kts 282°
2026-05-07 10:02 55.69758 79.40314 39985 ft 447 kts 282°
2026-05-07 10:02 55.71104 79.29555 39987 ft 448 kts 282°
2026-05-07 10:03 55.72437 79.18813 39981 ft 448 kts 282°
2026-05-07 10:03 55.73763 79.08042 39980 ft 448 kts 282°
2026-05-07 10:04 55.75081 78.97258 39979 ft 448 kts 281°
2026-05-07 10:04 55.76388 78.86477 39977 ft 448 kts 281°
2026-05-07 10:05 55.77687 78.75688 39976 ft 448 kts 281°
2026-05-07 10:05 55.78974 78.64896 39971 ft 447 kts 281°
2026-05-07 10:06 55.80253 78.54099 39955 ft 448 kts 281°
2026-05-07 10:06 55.81523 78.43277 39956 ft 448 kts 281°
2026-05-07 10:07 55.82783 78.32460 39969 ft 448 kts 281°
2026-05-07 10:07 55.84033 78.21644 39975 ft 447 kts 281°
2026-05-07 10:08 55.85274 78.10810 39972 ft 447 kts 281°
2026-05-07 10:08 55.86505 77.99976 39973 ft 447 kts 281°
2026-05-07 10:09 55.87722 77.89159 39971 ft 447 kts 280°
2026-05-07 10:09 55.88850 77.78251 39970 ft 447 kts 280°
2026-05-07 10:10 55.89968 77.67359 39957 ft 448 kts 280°
2026-05-07 10:10 55.91086 77.56482 39943 ft 448 kts 280°
2026-05-07 10:11 55.92196 77.45576 39933 ft 448 kts 279°
2026-05-07 10:11 55.93293 77.34681 39947 ft 448 kts 279°
2026-05-07 10:12 55.94382 77.23775 39950 ft 448 kts 279°
2026-05-07 10:12 55.95462 77.12846 39949 ft 448 kts 279°
2026-05-07 10:13 55.96532 77.01927 39949 ft 448 kts 279°
2026-05-07 10:13 55.97593 76.90979 39949 ft 448 kts 279°
2026-05-07 10:14 55.98646 76.80025 39944 ft 448 kts 279°
2026-05-07 10:14 55.99688 76.69064 39944 ft 449 kts 279°
2026-05-07 10:15 56.00721 76.58097 39945 ft 449 kts 279°
2026-05-07 10:15 56.01745 76.47112 39948 ft 449 kts 279°
2026-05-07 10:16 56.02758 76.36136 39946 ft 449 kts 278°
2026-05-07 10:16 56.03762 76.25150 39931 ft 449 kts 278°
2026-05-07 10:17 56.04755 76.14170 39936 ft 449 kts 278°
2026-05-07 10:17 56.05739 76.03165 39944 ft 449 kts 278°
2026-05-07 10:18 56.06715 75.92146 39937 ft 449 kts 278°
2026-05-07 10:18 56.07682 75.81111 39939 ft 449 kts 278°
2026-05-07 10:19 56.08637 75.70091 39934 ft 449 kts 278°
2026-05-07 10:19 56.09584 75.59045 39935 ft 449 kts 278°
2026-05-07 10:20 56.10520 75.48008 39930 ft 450 kts 277°
2026-05-07 10:20 56.11446 75.36977 39931 ft 450 kts 277°
2026-05-07 10:21 56.12366 75.25886 39931 ft 450 kts 277°
2026-05-07 10:21 56.13273 75.14819 39929 ft 450 kts 277°
2026-05-07 10:22 56.14173 75.03728 39930 ft 450 kts 277°
2026-05-07 10:22 56.15061 74.92646 39922 ft 451 kts 277°
2026-05-07 10:23 56.15942 74.81527 39923 ft 451 kts 277°
2026-05-07 10:23 56.16813 74.70397 39939 ft 452 kts 277°
2026-05-07 10:24 56.17676 74.59243 39934 ft 452 kts 277°
2026-05-07 10:24 56.18527 74.48099 39934 ft 452 kts 277°
2026-05-07 10:25 56.19370 74.36938 39908 ft 452 kts 276°
2026-05-07 10:25 56.20202 74.25766 39912 ft 452 kts 276°
2026-05-07 10:26 56.21025 74.14589 39911 ft 453 kts 276°
2026-05-07 10:26 56.21841 74.03386 39909 ft 453 kts 276°
2026-05-07 10:27 56.22729 73.92192 39904 ft 454 kts 281°
2026-05-07 10:27 56.24361 73.81229 39902 ft 455 kts 284°
2026-05-07 10:28 56.26045 73.70288 39898 ft 456 kts 283°
2026-05-07 10:28 56.27714 73.59296 39912 ft 456 kts 283°
2026-05-07 10:29 56.29367 73.48297 39908 ft 457 kts 283°
2026-05-07 10:29 56.31012 73.37272 39910 ft 457 kts 283°
2026-05-07 10:30 56.33461 73.20724 39907 ft 456 kts 283°
2026-05-07 10:30 56.35079 73.09689 39889 ft 456 kts 283°
2026-05-07 10:31 56.36688 72.98641 39895 ft 457 kts 283°
2026-05-07 10:31 56.38287 72.87586 39890 ft 457 kts 283°
2026-05-07 10:32 56.39880 72.76500 39883 ft 457 kts 283°
2026-05-07 10:32 56.41461 72.65411 39882 ft 457 kts 282°
2026-05-07 10:33 56.43034 72.54306 39889 ft 458 kts 282°
2026-05-07 10:33 56.44598 72.43183 39889 ft 458 kts 282°
2026-05-07 10:34 56.46152 72.32049 39884 ft 457 kts 282°
2026-05-07 10:34 56.47694 72.20926 39882 ft 457 kts 282°
2026-05-07 10:35 56.49224 72.09806 39885 ft 456 kts 282°
2026-05-07 10:35 56.50742 71.98689 39873 ft 456 kts 282°
2026-05-07 10:36 56.52251 71.87560 39873 ft 456 kts 282°
2026-05-07 10:36 56.53749 71.76431 39872 ft 456 kts 282°
2026-05-07 10:37 56.55236 71.65300 39868 ft 455 kts 282°
2026-05-07 10:37 56.56714 71.54155 39862 ft 456 kts 282°
2026-05-07 10:38 56.58183 71.42990 39865 ft 456 kts 282°
2026-05-07 10:38 56.59641 71.31822 39859 ft 456 kts 282°
2026-05-07 10:39 56.61087 71.20664 39851 ft 456 kts 282°
2026-05-07 10:39 56.62525 71.09480 39842 ft 456 kts 281°
2026-05-07 10:40 56.63954 70.98288 39843 ft 456 kts 281°
2026-05-07 10:40 56.65372 70.87085 39847 ft 456 kts 281°
2026-05-07 10:41 56.66784 70.75851 39843 ft 457 kts 281°
2026-05-07 10:41 56.68185 70.64612 39847 ft 457 kts 281°
2026-05-07 10:42 56.69580 70.53334 39850 ft 458 kts 281°
2026-05-07 10:42 56.70965 70.42040 39843 ft 458 kts 281°
2026-05-07 10:43 56.72341 70.30743 39844 ft 458 kts 281°
2026-05-07 10:43 56.73668 70.19450 39847 ft 458 kts 279°
2026-05-07 10:44 56.74907 70.08049 39845 ft 459 kts 280°
2026-05-07 10:44 56.76197 69.96701 39843 ft 459 kts 280°
2026-05-07 10:45 56.77456 69.85334 39843 ft 458 kts 280°
2026-05-07 10:45 56.78695 69.73949 39842 ft 458 kts 279°
2026-05-07 10:46 56.79922 69.62556 39834 ft 459 kts 279°
2026-05-07 10:46 56.81139 69.51164 39844 ft 459 kts 279°
2026-05-07 10:47 56.82349 69.39722 39846 ft 459 kts 279°
2026-05-07 10:47 56.83547 69.28294 39843 ft 459 kts 279°
2026-05-07 10:48 56.84733 69.16870 39836 ft 459 kts 279°
2026-05-07 10:48 56.85910 69.05430 39835 ft 459 kts 279°
2026-05-07 10:49 56.87076 68.93985 39828 ft 459 kts 279°
2026-05-07 10:49 56.88232 68.82532 39834 ft 459 kts 279°
2026-05-07 10:50 56.89377 68.71072 39831 ft 459 kts 279°
2026-05-07 10:50 56.90512 68.59603 39838 ft 459 kts 278°
2026-05-07 10:51 56.91636 68.48126 39844 ft 459 kts 278°
2026-05-07 10:51 56.92750 68.36643 39830 ft 459 kts 278°
2026-05-07 10:52 56.93853 68.25162 39836 ft 459 kts 278°
2026-05-07 10:52 56.94945 68.13671 39835 ft 459 kts 278°
2026-05-07 10:53 56.96026 68.02181 39837 ft 459 kts 278°
2026-05-07 10:53 56.97097 67.90677 39823 ft 459 kts 278°
2026-05-07 10:54 56.98156 67.79178 39835 ft 458 kts 278°
2026-05-07 10:54 56.99205 67.67676 39815 ft 458 kts 278°
2026-05-07 10:55 57.00243 67.56166 39828 ft 458 kts 278°
2026-05-07 10:55 57.01272 67.44634 39823 ft 459 kts 278°
2026-05-07 10:56 57.02289 67.33109 39837 ft 458 kts 278°
2026-05-07 10:56 57.03296 67.21574 39831 ft 458 kts 278°
2026-05-07 10:57 57.04291 67.10050 39836 ft 458 kts 277°
2026-05-07 10:57 57.05278 66.98504 39823 ft 458 kts 277°
2026-05-07 10:58 57.06181 66.86956 39828 ft 458 kts 276°
2026-05-07 10:58 57.07039 66.75380 39838 ft 458 kts 277°
2026-05-07 10:59 57.07913 66.63830 39816 ft 458 kts 276°
2026-05-07 10:59 57.08758 66.52251 39827 ft 458 kts 276°
2026-05-07 11:00 57.09587 66.40667 39832 ft 458 kts 276°
2026-05-07 11:00 57.10403 66.29084 39810 ft 458 kts 276°
2026-05-07 11:01 57.11209 66.17501 39820 ft 458 kts 276°
2026-05-07 11:01 57.12007 66.05885 39823 ft 458 kts 276°
2026-05-07 11:02 57.12796 65.94278 39825 ft 458 kts 276°
2026-05-07 11:02 57.13575 65.82650 39819 ft 459 kts 276°
2026-05-07 11:03 57.14342 65.71018 39822 ft 459 kts 275°
2026-05-07 11:03 57.15099 65.59382 39826 ft 459 kts 275°
2026-05-07 11:04 57.15847 65.47719 39826 ft 459 kts 275°
2026-05-07 11:04 57.16568 65.36069 39848 ft 459 kts 274°
2026-05-07 11:05 57.16697 65.24366 39829 ft 458 kts 266°
2026-05-07 11:05 57.16386 65.12675 39829 ft 458 kts 266°
2026-05-07 11:06 57.16100 65.00990 39835 ft 458 kts 266°
2026-05-07 11:06 57.15793 64.89287 39827 ft 457 kts 266°
2026-05-07 11:07 57.15636 64.83475 39661 ft 454 kts 266°
2026-05-07 11:07 57.15476 64.77711 39443 ft 448 kts 266°
2026-05-07 11:07 57.15315 64.72006 39230 ft 447 kts 266°
2026-05-07 11:07 57.15151 64.66301 39001 ft 447 kts 266°
2026-05-07 11:08 57.14985 64.60584 38773 ft 448 kts 266°
2026-05-07 11:08 57.14816 64.54877 38563 ft 448 kts 266°
2026-05-07 11:08 57.14644 64.49160 38300 ft 447 kts 266°
2026-05-07 11:08 57.14470 64.43451 38021 ft 447 kts 266°
2026-05-07 11:09 57.14294 64.37755 37688 ft 446 kts 266°
2026-05-07 11:09 57.14116 64.32059 36910 ft 449 kts 266°
2026-05-07 11:09 57.13933 64.26310 36189 ft 449 kts 266°
2026-05-07 11:09 57.13749 64.20599 35444 ft 449 kts 266°
2026-05-07 11:10 57.13560 64.14840 34578 ft 452 kts 266°
2026-05-07 11:10 57.13369 64.09077 33812 ft 452 kts 266°
2026-05-07 11:10 57.13176 64.03347 33286 ft 445 kts 266°
2026-05-07 11:10 57.12983 63.97699 32717 ft 440 kts 266°
2026-05-07 11:11 57.12791 63.92132 32158 ft 435 kts 267°
2026-05-07 11:11 57.12597 63.86605 31615 ft 431 kts 267°
2026-05-07 11:11 57.12403 63.81133 31074 ft 427 kts 267°
2026-05-07 11:11 57.12217 63.75726 30527 ft 423 kts 269°
2026-05-07 11:12 57.12249 63.70363 30000 ft 419 kts 272°
2026-05-07 11:12 57.12336 63.65039 29401 ft 415 kts 272°
2026-05-07 11:12 57.12412 63.59781 28878 ft 410 kts 272°
2026-05-07 11:12 57.12483 63.54566 28367 ft 405 kts 272°
2026-05-07 11:13 57.12549 63.49436 27844 ft 401 kts 272°
2026-05-07 11:13 57.12611 63.44337 27326 ft 397 kts 272°
2026-05-07 11:13 57.12671 63.39288 26807 ft 393 kts 272°
2026-05-07 11:13 57.12729 63.34293 26280 ft 390 kts 272°
2026-05-07 11:14 57.12784 63.29331 25790 ft 387 kts 272°
2026-05-07 11:14 57.12837 63.24408 25270 ft 384 kts 272°
2026-05-07 11:14 57.12887 63.19527 24770 ft 381 kts 272°
2026-05-07 11:14 57.12935 63.14657 24253 ft 379 kts 271°
2026-05-07 11:15 57.12981 63.09838 23748 ft 377 kts 271°
2026-05-07 11:15 57.13025 63.05027 23193 ft 375 kts 271°
2026-05-07 11:15 57.13067 63.00274 22687 ft 371 kts 271°
2026-05-07 11:15 57.13107 62.95561 22170 ft 368 kts 271°
2026-05-07 11:16 57.13144 62.90868 21679 ft 365 kts 271°
2026-05-07 11:16 57.13180 62.86204 21182 ft 362 kts 271°
2026-05-07 11:16 57.13214 62.81598 20681 ft 359 kts 271°
2026-05-07 11:16 57.13245 62.77025 20181 ft 357 kts 271°
2026-05-07 11:17 57.13275 62.72492 19689 ft 354 kts 271°
2026-05-07 11:17 57.13303 62.67987 19200 ft 351 kts 271°
2026-05-07 11:17 57.13329 62.63509 18703 ft 349 kts 271°
2026-05-07 11:17 57.13354 62.59069 18210 ft 347 kts 271°
2026-05-07 11:18 57.13377 62.54643 17700 ft 344 kts 271°
2026-05-07 11:18 57.13398 62.50273 17190 ft 340 kts 271°
2026-05-07 11:18 57.13417 62.45954 16722 ft 336 kts 271°
2026-05-07 11:18 57.13435 62.41685 16245 ft 332 kts 270°
2026-05-07 11:19 57.13451 62.37473 15774 ft 328 kts 270°
2026-05-07 11:19 57.13465 62.33305 15310 ft 325 kts 270°
2026-05-07 11:19 57.13478 62.29185 14854 ft 321 kts 270°
2026-05-07 11:19 57.13489 62.25088 14391 ft 319 kts 270°
2026-05-07 11:20 57.13499 62.21034 13940 ft 316 kts 270°
2026-05-07 11:20 57.13508 62.17006 13469 ft 314 kts 270°
2026-05-07 11:20 57.13514 62.13023 13010 ft 310 kts 270°
2026-05-07 11:20 57.13520 62.09083 12575 ft 306 kts 270°
2026-05-07 11:21 57.13525 62.05202 12148 ft 303 kts 270°
2026-05-07 11:21 57.13466 62.01364 11725 ft 299 kts 265°
2026-05-07 11:21 57.13161 61.97599 11300 ft 297 kts 259°
2026-05-07 11:21 57.12639 61.93949 10879 ft 294 kts 256°
2026-05-07 11:22 57.12108 61.90339 10469 ft 292 kts 257°
2026-05-07 11:22 57.11597 61.86740 10223 ft 286 kts 257°
2026-05-07 11:22 57.11105 61.83280 10126 ft 274 kts 257°
2026-05-07 11:22 57.10629 61.79944 9920 ft 268 kts 257°
2026-05-07 11:23 57.10159 61.76652 9730 ft 266 kts 257°
2026-05-07 11:23 57.09689 61.73376 9599 ft 266 kts 257°
2026-05-07 11:23 57.09214 61.70084 9458 ft 267 kts 257°
2026-05-07 11:23 57.08736 61.66766 9202 ft 270 kts 257°
2026-05-07 11:24 57.08253 61.63434 8914 ft 269 kts 257°
2026-05-07 11:24 57.07775 61.60157 8632 ft 263 kts 257°
2026-05-07 11:24 57.07306 61.56943 8354 ft 258 kts 257°
2026-05-07 11:24 57.06844 61.53786 8074 ft 254 kts 257°
2026-05-07 11:25 57.06390 61.50683 7823 ft 250 kts 257°
2026-05-07 11:25 57.05946 61.47654 7676 ft 241 kts 257°
2026-05-07 11:25 57.05518 61.44745 7562 ft 232 kts 257°
2026-05-07 11:25 57.05101 61.41897 7424 ft 232 kts 257°
2026-05-07 11:26 57.04669 61.39042 7288 ft 234 kts 252°
2026-05-07 11:26 57.03932 61.36390 7167 ft 236 kts 237°
2026-05-07 11:26 57.02847 61.34173 7067 ft 233 kts 229°
2026-05-07 11:26 57.01728 61.32019 6900 ft 236 kts 230°
2026-05-07 11:27 57.00611 61.29813 6711 ft 237 kts 231°
2026-05-07 11:27 56.99498 61.27601 6501 ft 236 kts 230°
2026-05-07 11:27 56.98391 61.25408 6281 ft 234 kts 230°
2026-05-07 11:27 56.97280 61.23213 6035 ft 236 kts 230°
2026-05-07 11:28 56.96168 61.21018 5828 ft 237 kts 230°
2026-05-07 11:28 56.95047 61.18817 5592 ft 237 kts 231°
2026-05-07 11:28 56.93784 61.16899 5351 ft 239 kts 212°
2026-05-07 11:28 56.92204 61.15906 5142 ft 242 kts 195°
2026-05-07 11:29 56.90594 61.15280 5027 ft 231 kts 196°
2026-05-07 11:29 56.89061 61.14649 4946 ft 221 kts 196°
2026-05-07 11:29 56.87614 61.14037 4882 ft 202 kts 196°
2026-05-07 11:29 56.86304 61.13479 4385 ft 192 kts 197°
2026-05-07 11:30 56.84996 61.12911 3862 ft 195 kts 197°
2026-05-07 11:30 56.83652 61.12501 3686 ft 199 kts 187°
2026-05-07 11:30 56.82268 61.12340 3566 ft 200 kts 187°
2026-05-07 11:30 56.80891 61.12158 3418 ft 199 kts 188°
2026-05-07 11:31 56.79503 61.11962 3245 ft 200 kts 188°
2026-05-07 11:31 56.78125 61.11760 3048 ft 195 kts 187°
2026-05-07 11:31 56.76791 61.11581 2864 ft 187 kts 187°
2026-05-07 11:31 56.75556 61.11421 2709 ft 172 kts 188°
2026-05-07 11:32 56.73513 61.09744 2696 ft 165 kts 242°
2026-05-07 11:32 56.73162 61.07864 2700 ft 154 kts 266°
2026-05-07 11:32 56.73142 61.05896 2696 ft 157 kts 274°
2026-05-07 11:33 56.73220 61.03926 2698 ft 156 kts 276°
2026-05-07 11:33 56.73291 61.02047 2702 ft 144 kts 276°
2026-05-07 11:33 56.73361 61.00236 2605 ft 146 kts 276°
2026-05-07 11:33 56.73430 60.98395 2424 ft 146 kts 277°
2026-05-07 11:34 56.73503 60.96531 2220 ft 147 kts 274°
2026-05-07 11:34 56.73572 60.94714 2023 ft 140 kts 276°
2026-05-07 11:34 56.73639 60.92994 1856 ft 136 kts 277°
2026-05-07 11:34 56.73706 60.91278 1684 ft 134 kts 279°
2026-05-07 11:35 56.73773 60.89520 1512 ft 138 kts 281°
2026-05-07 11:35 56.73853 60.87739 1332 ft 142 kts 278°
2026-05-07 11:35 56.73906 60.85933 1113 ft 146 kts 277°
2026-05-07 11:35 56.73984 60.84126 916 ft 141 kts 275°
2026-05-07 11:36 56.74053 60.82404 787 ft 134 kts 274°
2026-05-07 11:36 56.74104 60.80931 782 ft 89 kts 274°
2026-05-07 11:36 56.74135 60.80264 782 ft 17 kts 275°
2026-05-07 11:36 56.74136 60.80239 782 ft 1 kts 275°
2026-05-07 11:37 56.74146 60.80030 781 ft 25 kts 275°
2026-05-07 11:37 56.74163 60.79678 781 ft 30 kts 274°
2026-05-07 11:37 56.74182 60.79246 780 ft 37 kts 276°
2026-05-07 11:37 56.74242 60.79086 780 ft 14 kts
2026-05-07 11:38 56.74380 60.79133 780 ft 24 kts 11°
2026-05-07 11:38 56.74558 60.79187 781 ft 28 kts
2026-05-07 11:38 56.74752 60.79191 781 ft 28 kts
2026-05-07 11:38 56.74863 60.79336 781 ft 16 kts 85°
2026-05-07 11:39 56.74808 60.79471 781 ft 15 kts 163°
2026-05-07 11:39 56.74785 60.79478 781 ft 0 kts 183°